Flag for China Weather past 2 weeks in Hangzhou, Zhejiang, China

Now
81 °F

Passing clouds.


Feels Like: 80 °F
Forecast: 63 / 87 °F
Wind: 6 mph from Southwest

Location: Hangzhou Airport

Current Time: Apr 27, 2015 at 1:50:04 PM

Latest Report: Apr 27, 2015 at 1:00 PM


Visibility: N/A

Pressure: 29.86 "Hg

Humidity: 37%

Dew point: 52 °F

Location of HangzhouLocation

Historic Weather in Hangzhou — Graph

°F

Hangzhou temperature yesterday

Maximum temperature yesterday: 81 °F (at 12:00 PM)
Minimum temperature yesterday: 57 °F (at 4:30 AM)
Average temperature yesterday: 70 °F

Past Weeks' High & Low Weather Summary

 TemperatureHumidityPressure
High82 °F (Apr 18, 3:00 PM)88% (Apr 20, 12:30 AM)30.24 "Hg (Apr 20, 12:30 AM)
Low46 °F (Apr 21, 4:30 AM)11% (Apr 23, 4:00 PM)29.59 "Hg (Apr 19, 3:00 PM)
Average65 °F51%29.99 "Hg
* Reported Apr 12 12:00 Noon — Apr 27 12:30 PM, Hangzhou, Weather by CustomWeather, © 2015

Note: Actual official high and low records may vary slightly from our data, if they occured in-between our weather recording intervals... More about our weather records

Advertising

Hangzhou weather history for previous 24 hours

 ConditionsComfort  
Time TempWeatherWind HumidityBarometerVisibility
12:30 PM
Mon, Apr 27
81 °FPassing clouds.3 mph39%29.89 "HgN/A
12:00 PM81 °FSunny.3 mph39%29.89 "Hg10 mi
11:30 AM79 °FSunny.1 mph39%29.92 "Hg10 mi
11:00 AM77 °FSunny.3 mph44%29.95 "Hg10 mi
10:30 AM75 °FPassing clouds.3 mph50%29.95 "HgN/A
10:00 AM75 °FPassing clouds.3 mph47%29.95 "HgN/A
9:30 AM73 °FScattered clouds.6 mph47%29.95 "HgN/A
9:00 AM72 °FScattered clouds.3 mph50%29.98 "HgN/A
8:30 AM70 °FScattered clouds.3 mph50%29.98 "HgN/A
8:00 AM68 °FPassing clouds.1 mph53%29.98 "HgN/A
7:30 AM68 °FPassing clouds.1 mph53%29.98 "HgN/A
7:00 AM68 °FPassing clouds.1 mph53%29.98 "HgN/A
6:30 AM66 °FPassing clouds.1 mph56%29.95 "HgN/A
6:00 AM64 °FPassing clouds.No wind60%29.95 "HgN/A
5:30 AM64 °FSunny.3 mph56%29.95 "Hg10 mi
5:00 AM64 °FClear.1 mph56%29.95 "Hg10 mi
4:30 AM64 °FClear.3 mph56%29.95 "Hg10 mi
4:00 AM66 °FClear.3 mph52%29.95 "Hg10 mi
3:30 AM66 °FClear.1 mph52%29.95 "Hg10 mi
3:00 AM66 °FPassing clouds.3 mph49%29.95 "HgN/A
2:30 AM66 °FClear.3 mph49%29.95 "Hg10 mi
2:00 AM66 °FClear.3 mph46%29.95 "Hg10 mi
1:30 AM66 °FClear.3 mph46%29.98 "Hg10 mi
1:00 AM66 °FClear.3 mph46%29.98 "Hg10 mi
12:30 AM66 °FClear.3 mph43%29.98 "Hg10 mi
12:00 AM66 °FClear.3 mph46%30.01 "Hg10 mi
11:30 PM
Sun, Apr 26
66 °FClear.3 mph46%30.01 "Hg10 mi
11:00 PM68 °FPassing clouds.3 mph40%30.01 "HgN/A
10:30 PM68 °FPassing clouds.3 mph40%30.01 "HgN/A
10:00 PM68 °FPassing clouds.8 mph38%30.01 "HgN/A
9:30 PM68 °FPassing clouds.3 mph38%30.04 "HgN/A
9:00 PM70 °FPassing clouds.6 mph35%30.04 "HgN/A
8:30 PM72 °FClear.8 mph31%30.01 "Hg10 mi
8:00 PM72 °FPassing clouds.8 mph31%30.01 "HgN/A
7:30 PM72 °FPassing clouds.8 mph29%30.01 "HgN/A
7:00 PM72 °FPassing clouds.8 mph29%30.01 "HgN/A
6:30 PM72 °FPassing clouds.10 mph29%30.01 "HgN/A
6:00 PM72 °FPassing clouds.10 mph23%30.01 "HgN/A
5:30 PM73 °FPassing clouds.8 mph19%30.01 "HgN/A
5:00 PM75 °FPassing clouds.8 mph18%30.01 "HgN/A
4:30 PM75 °FPassing clouds.8 mph14%30.01 "HgN/A
4:00 PM75 °FPassing clouds.8 mph14%30.01 "HgN/A
3:30 PM77 °FPassing clouds.8 mph14%30.04 "HgN/A
3:00 PM77 °FPassing clouds.13 mph14%30.04 "HgN/A
2:30 PM79 °FPassing clouds.10 mph18%30.04 "HgN/A
2:00 PM81 °FPassing clouds.8 mph18%30.04 "HgN/A
1:30 PM81 °FPassing clouds.8 mph21%30.07 "HgN/A
1:00 PM79 °FPassing clouds.8 mph16%30.07 "HgN/A
Weather by CustomWeather, © 2015

See weather overviewHow to use our weather pages